Mojave, CA

8:51 AM PDT on July 21, 2017 (GMT -0700)
Mojave

Weather History for KMHV - September, 2012

Change the Weather History Date:

Saturday, September 1, 2012

  Actual Average Record
Temperature  
Mean Temperature 76 °F -  
Max Temperature 91 °F 93 °F 102 °F (1969)
Min Temperature 62 °F 63 °F 32 °F (2003)
Cooling Degree Days 12    
Growing Degree Days 26 (Base 50)    
Moisture  
Dew Point 29 °F    
Average Humidity 19    
Maximum Humidity 34    
Minimum Humidity 7    
Precipitation  
Precipitation 0.00 in - - ()
Sea Level Pressure  
Sea Level Pressure 29.98 in    
Wind  
Wind Speed 10 mph (WSW)    
Max Wind Speed 20 mph    
Max Gust Speed 25 mph    
Visibility 10 miles    
Events      
Averages and records for this station are not official NWS values.
T = Trace of Precipitation, MM = Missing Value Source: NWS Daily Summary

Daily Weather History Graph

Daily Weather History Graph

Search for Another Location

Airport or City:

Trip Planner

Search our weather history database for the weather conditions in past years. The results will help you decide how hot, cold, wet, or windy it might be!

Date:

Astronomy

Sep. 01, 2012 Rise Set
Actual Time 6:25 AM PDT 7:18 PM PDT
Civil Twilight 5:59 AM PDT 7:44 PM PDT
Nautical Twilight 5:29 AM PDT 8:14 PM PDT
Astronomical Twilight 4:57 AM PDT 8:46 PM PDT
Moon 7:44 PM PDT (9/1) 7:32 AM PDT (9/1)
Length of Visible Light 13h 44m
Length of Day
12h 52m
Full, 98% of the Moon is Illuminated
Sep 1
Full
Sep 8
Last Quarter
Sep 15
New
Sep 22
First Quarter
Sep 29
Full

Hourly Weather History & Observations

Time (PDT) Temp. Dew Point Humidity Pressure Visibility Wind Dir Wind Speed Gust Speed Precip Events Conditions
12:15 AM 71.6 °F 35.6 °F 27% 29.96 in 10.0 mi WSW 13.8 mph - N/A   Clear
12:35 AM 71.6 °F 35.6 °F 27% 29.97 in 10.0 mi WSW 11.5 mph - N/A   Clear
12:55 AM 71.6 °F 35.6 °F 27% 29.97 in 10.0 mi SW 11.5 mph 20.7 mph N/A   Clear
1:15 AM 71.6 °F 33.8 °F 25% 29.97 in 10.0 mi SW 12.7 mph - N/A   Clear
1:35 AM 69.8 °F 32.0 °F 25% 29.97 in 10.0 mi WSW 10.4 mph - N/A   Clear
1:55 AM 68.0 °F 32.0 °F 26% 29.96 in 10.0 mi West 8.1 mph - N/A   Clear
2:15 AM 68.0 °F 32.0 °F 26% 29.96 in 10.0 mi WSW 11.5 mph - N/A   Clear
2:35 AM 68.0 °F 32.0 °F 26% 29.96 in 10.0 mi West 15.0 mph - N/A   Clear
2:55 AM 68.0 °F 30.2 °F 24% 29.96 in 10.0 mi WSW 11.5 mph - N/A   Clear
3:15 AM 68.0 °F 30.2 °F 24% 29.96 in 10.0 mi SW 10.4 mph 18.4 mph N/A   Clear
3:35 AM 66.2 °F 28.4 °F 24% 29.97 in 10.0 mi West 6.9 mph - N/A   Clear
3:55 AM 66.2 °F 32.0 °F 28% 29.97 in 10.0 mi SW 12.7 mph 16.1 mph N/A   Clear
4:15 AM 66.2 °F 30.2 °F 26% 29.97 in 10.0 mi West 11.5 mph - N/A   Clear
4:35 AM 66.2 °F 32.0 °F 28% 29.97 in 10.0 mi West 6.9 mph - N/A   Clear
4:55 AM 64.4 °F 32.0 °F 30% 29.97 in 10.0 mi West 3.5 mph - N/A   Clear
5:15 AM 64.4 °F 32.0 °F 30% 29.97 in 10.0 mi WNW 6.9 mph - N/A   Clear
5:35 AM 64.4 °F 32.0 °F 30% 29.98 in 10.0 mi Calm Calm - N/A   Clear
5:55 AM 66.2 °F 32.0 °F 28% 29.98 in 10.0 mi West 3.5 mph - N/A   Clear
6:15 AM 66.2 °F 32.0 °F 28% 29.99 in 10.0 mi WSW 3.5 mph - N/A   Clear
6:35 AM 62.6 °F 33.8 °F 34% 29.99 in 10.0 mi West 5.8 mph - N/A   Clear
6:55 AM 64.4 °F 32.0 °F 30% 30.00 in 10.0 mi West 5.8 mph - N/A   Clear
7:15 AM 66.2 °F 32.0 °F 28% 30.00 in 10.0 mi West 3.5 mph - N/A   Clear
7:35 AM 68.0 °F 32.0 °F 26% 30.01 in 10.0 mi SW 4.6 mph - N/A   Clear
7:55 AM 71.6 °F 32.0 °F 23% 30.01 in 10.0 mi SW 4.6 mph - N/A   Clear
8:15 AM 73.4 °F 32.0 °F 22% 30.01 in 10.0 mi Calm Calm - N/A   Clear
8:35 AM 75.2 °F 32.0 °F 21% 30.01 in 10.0 mi SSW 3.5 mph - N/A   Clear
8:55 AM 77.0 °F 32.0 °F 19% 30.01 in 10.0 mi West 3.5 mph - N/A   Clear
9:15 AM 78.8 °F 32.0 °F 18% 30.02 in 10.0 mi West 12.7 mph - N/A   Clear
9:35 AM 78.8 °F 32.0 °F 18% 30.02 in 10.0 mi WSW 12.7 mph - N/A   Clear
9:55 AM 80.6 °F 28.4 °F 15% 30.02 in 10.0 mi WSW 11.5 mph - N/A   Clear
10:15 AM 80.6 °F 28.4 °F 15% 30.02 in 10.0 mi SW 10.4 mph 16.1 mph N/A   Clear
10:35 AM 80.6 °F 28.4 °F 15% 30.02 in 10.0 mi SSW 8.1 mph - N/A   Clear
10:55 AM 80.6 °F 26.6 °F 14% 30.02 in 10.0 mi South 9.2 mph 16.1 mph N/A   Clear
11:15 AM 82.4 °F 26.6 °F 13% 30.02 in 10.0 mi SSW 9.2 mph - N/A   Clear
11:35 AM 84.2 °F 26.6 °F 12% 30.01 in 10.0 mi SW 9.2 mph 18.4 mph N/A   Clear
11:55 AM 84.2 °F 26.6 °F 12% 30.01 in 10.0 mi SW 8.1 mph - N/A   Clear
12:15 PM 84.2 °F 26.6 °F 12% 30.00 in 10.0 mi SSW 12.7 mph 17.3 mph N/A   Clear
12:35 PM 86.0 °F 23.0 °F 10% 30.00 in 10.0 mi SW 8.1 mph - N/A   Clear
12:55 PM 86.0 °F 19.4 °F 9% 29.99 in 10.0 mi SSW 6.9 mph 19.6 mph N/A   Clear
1:15 PM 89.6 °F 17.6 °F 7% 29.99 in 10.0 mi South 9.2 mph - N/A   Clear
1:35 PM 89.6 °F 19.4 °F 8% 29.98 in 10.0 mi SW 11.5 mph 17.3 mph N/A   Clear
1:55 PM 89.6 °F 19.4 °F 8% 29.98 in 10.0 mi SSE 8.1 mph 20.7 mph N/A   Clear
2:15 PM 89.6 °F 19.4 °F 8% 29.97 in 10.0 mi South 11.5 mph - N/A   Clear
2:35 PM 91.4 °F 26.6 °F 10% 29.96 in 10.0 mi West 12.7 mph - N/A   Clear
2:55 PM 89.6 °F 28.4 °F 11% 29.95 in 10.0 mi WNW 12.7 mph 17.3 mph N/A   Clear
3:15 PM 91.4 °F 26.6 °F 10% 29.95 in 10.0 mi West 15.0 mph 19.6 mph N/A   Clear
3:35 PM 89.6 °F 26.6 °F 10% 29.95 in 10.0 mi WNW 17.3 mph - N/A   Clear
3:50 PM 91.4 °F 26.6 °F 10% 29.94 in 10.0 mi WNW 15.0 mph - N/A   Clear
4:15 PM 89.6 °F 26.6 °F 10% 29.94 in 10.0 mi WNW 18.4 mph - N/A   Clear
4:35 PM 89.6 °F 28.4 °F 11% 29.94 in 10.0 mi WNW 16.1 mph - N/A   Clear
4:55 PM 89.6 °F 32.0 °F 13% 29.94 in 10.0 mi WNW 18.4 mph 23.0 mph N/A   Clear
5:15 PM 87.8 °F 33.8 °F 15% 29.94 in 10.0 mi WNW 19.6 mph 25.3 mph N/A   Clear